Location: Bailleul
(50.3375°N, 2.8513°E)
Time: 11:13:05
(UTC+00:00)

FALCON 9 DEB - Pass Details

Date: 16 June 2021
Orbit: 422 x 432 km, 53.0° (Epoch: 27 July)

Event Time Altitude Azimuth Distance (km) Brightness Sun altitude
Rises 21:15:24 0° 218° (SW) 2,390 6.7 -8.8°
Reaches altitude 10° 21:17:38 10° 208° (SSW) 1,524 5.6 -9.0°
Maximum altitude 21:20:42 31° 144° (SE) 782 3.9 -9.3°
Drops below altitude 10° 21:23:46 10° 81° (E) 1,526 5.6 -9.6°
Sets 21:26:00 0° 71° (ENE) 2,393 6.7 -9.7°
